This is the latest recevied weather packets stored in our database for station/object KF5VOI. If no packets are shown the sender has not sent any weather packets the latest 10 day(s).
| Time | Temp. | Humidity | Pressure | Rain* | Wind** | Luminosity | Snow |
|---|---|---|---|---|---|---|---|
| 1777555514 | 24.44° C | 99% | 1013.4 hPa | 0 mm | - | - | - |
| 1777553714 | 24.44° C | 99% | 1013.1 hPa | 0 mm | - | - | - |
| 1777551914 | 23.89° C | 99% | 1012.7 hPa | 0 mm | - | - | - |
| 1777550114 | 23.33° C | 99% | 1012.3 hPa | 0 mm | - | - | - |
| 1777548315 | 22.78° C | 99% | 1012 hPa | 0 mm | - | - | - |
| 1777548314 | 22.78° C | 99% | 1012 hPa | 0 mm | - | - | - |
| 1777546514 | 22.78° C | 99% | 1011.5 hPa | 0 mm | - | - | - |
| 1777544714 | 22.22° C | 99% | 1011.2 hPa | 0 mm | - | - | - |
| 1777542914 | 21.67° C | 99% | 1011.4 hPa | 0 mm | - | - | - |
| 1777541114 | 21.67° C | 99% | 1012 hPa | 0 mm | - | - | - |
| 1777539314 | 21.67° C | 99% | 1012.6 hPa | 0 mm | - | - | - |
| 1777537514 | 21.67° C | 99% | 1013 hPa | 0 mm | - | - | - |
| 1777535714 | 21.67° C | 99% | 1014.2 hPa | 0 mm | - | - | - |
| 1777533914 | 21.11° C | 99% | 1014.3 hPa | 0 mm | - | - | - |
| 1777532114 | 21.11° C | 99% | 1014.6 hPa | 0 mm | - | - | - |
| 1777530314 | 21.11° C | 99% | 1014.6 hPa | 0 mm | - | - | - |
| 1777528514 | 21.11° C | 99% | 1015 hPa | 0 mm | - | - | - |
| 1777526714 | 21.11° C | 99% | 1015.8 hPa | 0 mm | - | - | - |
| 1777524915 | 21.11° C | 99% | 1015.9 hPa | 0 mm | - | - | - |
| 1777523114 | 21.11° C | 99% | 1016.6 hPa | 0 mm | - | - | - |
| 1777521314 | 21.67° C | 97% | 1016.5 hPa | 0 mm | - | - | - |
| 1777519514 | 23.33° C | 88% | 1016 hPa | 0 mm | - | - | - |
| 1777517714 | 24.44° C | 87% | 1014.9 hPa | 0 mm | - | - | - |
| 1777514116 | 25.56° C | 90% | 1014.4 hPa | 0 mm | - | - | - |
| 1777512316 | 26.11° C | 88% | 1014.2 hPa | 0 mm | - | - | - |
* Rain latest hour (hover to see other rain measurements)
** Current wind speed in m/s (hover to see current wind gust speed)